Regional Weather Roundup
Issued by NWS

Home | Current Version | Previous Version | Text Only | Print | Product List | Glossary On
Versions: 1 2 3 4 5 6 7 8 9 10 11 12 13 14 15 16 17 18 19 20 21 22 23 24 25 26 27 28 29 30 31 32 33 34 35 36 37 38 39 40 41 42 43 44 45 46 47 48 49 50
000
ASUS46 KPQR 242310
RWROR

OREGON REGIONAL WEATHER ROUNDUP
NATIONAL WEATHER SERVICE PORTLAND OR
300 PM PST TUE JAN 24 2017

NOTE: "FAIR" INDICATES FEW OR NO CLOUDS BELOW 12,000 FEET WITH
NO SIGNIFICANT WEATHER AND/OR OBSTRUCTIONS TO VISIBILITY.

ORZ001>013-250000-
NORTHWEST OREGON


CITY           SKY/WX    TMP DP  RH WIND       PRES   REMARKS
ASTORIA        PTSUNNY   43  37  79 VRB3      30.14S
NEWPORT        CLOUDY    46  43  87 SW6       30.19S
PORTLAND       PTSUNNY   39  34  82 NW8       30.18R WCI  33
VANCOUVER WA   PTSUNNY   39  35  86 W7        30.17S WCI  34
SCAPPOOSE      CLOUDY    36  34  92 CALM      30.17S
HILLSBORO      CLOUDY    45  37  73 CALM      30.15S
AURORA         PTSUNNY   46  35  65 CALM      30.16R
MCMINNVILLE    PTSUNNY   46  36  68 CALM      30.16R
SALEM          PTSUNNY   47  36  65 SE7       30.14R
CORVALLIS        N/A     48  36  61 CALM      30.16S
EUGENE         MOSUNNY   50  35  56 CALM      30.14S
$$

ORZ021-028-250000-
SOUTHWEST OREGON


CITY           SKY/WX    TMP DP  RH WIND       PRES   REMARKS
NORTH BEND     MOSUNNY   48  39  71 N6        30.18R
BROOKINGS      SUNNY     51  38  60 VRB3      30.14R
ROSEBURG       SUNNY     49  35  58 CALM      30.15S
SEXTON SUMMIT  SUNNY     34  23  64 NW3       30.06R
MEDFORD        SUNNY     46  32  58 CALM      30.13S
$$

ORZ014>016-041-250000-
COLUMBIA GORGE


CITY           SKY/WX    TMP DP  RH WIND       PRES   REMARKS
TROUTDALE      MOSUNNY   44  35  70 CALM      30.17R
THE DALLES     CLOUDY    36  31  82 CALM      30.13S
$$

ORZ029>031-041-044-049-050-061>064-502-503-505>511-250000-
EASTERN OREGON


CITY           SKY/WX    TMP DP  RH WIND       PRES   REMARKS
REDMOND        SUNNY     39  20  46 CALM      30.03R
BEND           SUNNY     39  19  45 NW9       30.01R WCI  33
PRINEVILLE     SUNNY     36  23  60 CALM      30.02S
KLAMATH FALLS  SUNNY     31  23  72 S5        30.03R WCI  26
LAKEVIEW       SUNNY     21  12  68 CALM      30.03R
HERMISTON      CLOUDY    33  31  92 SW6       30.12R WCI  28
PENDLETON      CLOUDY    31  31 100 CALM      30.07S
JOHN DAY       CLOUDY    33  25  71 W9        29.99R WCI  26
MEACHAM        LGT SNOW  29  23  78 NW3       29.98R
LA GRANDE      PTSUNNY   30  27  86 CALM      30.00R
BAKER CITY     CLOUDY    31  26  82 NW22      29.95R WCI  18
BURNS          CLOUDY    20  15  81 NE5       29.97R WCI  13
ROME             N/A     33  20  58 W12       29.94R WCI  24
ONTARIO        SUNNY     36  26  67 NW20      29.98R WCI  25
$$



USA.gov is the U.S. government's official web portal to all federal, state and local government web resources and services.